Location: Caixon
(43.4106°N, 0.0273°E)
Time: 14:25:50
(UTC+00:00)

COSMOS 2455 - Pass Details

Date: 16 October 2021
Orbit: 898 x 911 km, 67.1° (Epoch: 29 November)

Event Time Altitude Azimuth Distance (km) Brightness Sun altitude
Rises 04:21:09 0° 191° (S) 3,507 5.7 -21.4°
Reaches altitude 10° 04:23:43 10° 186° (S) 2,573 5.1 -21.0°
Maximum altitude 04:29:25 49° 113° (ESE) 1,156 3.7 -19.9°
Drops below altitude 10° 04:35:11 10° 40° (NE) 2,597 5.9 -18.9°
Sets 04:37:46 0° 36° (NE) 3,544 6.5 -18.4°
